Location: ??
(35.4032°N, 139.3073°E)
Time: 11:36:00
(UTC+00:00)

CZ-2C R/B - Pass Details

Date: 13 April 2024
Orbit: 298 x 35801 km, 87.6° (Epoch: 20 May)

Event Time Altitude Azimuth Distance (km) Brightness Sun altitude
Exits shadow 18:01:27 58° 348° (NNW) 719 2.9 -25.2°
Drops below altitude 10° 18:07:21 10° 1° (N) 3,786 6.9 -24.2°
Sets 18:13:22 0° 2° (N) 6,799 8.3 -23.2°
